Poteau, OK

11:02 AM CST on February 09, 2016 (GMT -0600)
Kerr

Weather History for KRKR - December, 2013

Change the Weather History Date:

Wednesday, December 4, 2013

  Actual Average (KFSM) Record (KFSM)
Temperature  
Mean Temperature 54 °F 44 °F  
Max Temperature 71 °F 54 °F 79 °F (2001)
Min Temperature 37 °F 34 °F 14 °F (1897)
Degree Days  
Heating Degree Days 11 21  
Month to date heating degree days 82  
Since 1 July heating degree days 647  
Growing Degree Days 4 (Base 50)    
Moisture  
Dew Point 44 °F    
Average Humidity 85    
Maximum Humidity 100    
Minimum Humidity 50    
Precipitation  
Precipitation 0.00 in 0.12 in 1.76 in (1930)
Month to date precipitation 0.50  
Year to date precipitation 42.67  
Sea Level Pressure  
Sea Level Pressure 29.72 in    
Wind  
Wind Speed 2 mph (West)    
Max Wind Speed 15 mph    
Max Gust Speed 18 mph    
Visibility 7 miles    
Events Fog    
T = Trace of Precipitation, MM = Missing Value Source: NWS Daily Summary

Daily Weather History Graph

Daily Weather History Graph

Search for Another Location

Airport or City:

Trip Planner

Search our weather history database for the weather conditions in past years. The results will help you decide how hot, cold, wet, or windy it might be!

Date:

Astronomy

Dec. 04, 2013 Rise Set
Actual Time 7:11 AM CST 5:06 PM CST
Civil Twilight 6:43 AM CST 5:34 PM CST
Nautical Twilight 6:11 AM CST 6:05 PM CST
Astronomical Twilight 5:41 AM CST 6:36 PM CST
Moon 8:41 AM CST (12/4) 7:15 PM CST (12/4)
Length of Visible Light 10h 51m
Length of Day
9h 55m
Waxing Crescent, 4% of the Moon is Illuminated
Dec 4
Waxing Crescent
Dec 9
First Quarter
Dec 17
Full
Dec 25
Last Quarter
Jan 1
New

Hourly Weather History & Observations

Time (CST) Temp. Windchill Dew Point Humidity Pressure Visibility Wind Dir Wind Speed Gust Speed Precip Events Conditions
12:15 AM 42.8 °F - 42.8 °F 100% 29.63 in 0.5 mi Calm Calm - N/A Fog Fog
12:35 AM 42.8 °F - 42.8 °F 100% 29.61 in 0.2 mi Calm Calm - N/A Fog Fog
12:55 AM 42.8 °F - 42.8 °F 100% 29.60 in 0.2 mi Calm Calm - N/A Fog Fog
1:15 AM 41.0 °F - 41.0 °F 100% 29.60 in 0.5 mi Calm Calm - N/A Fog Fog
1:35 AM 41.0 °F - 41.0 °F 100% 29.60 in 0.5 mi Calm Calm - N/A Fog Fog
1:55 AM 41.0 °F - 41.0 °F 100% 29.60 in 0.2 mi Calm Calm - N/A Fog Fog
2:15 AM 41.0 °F - 41.0 °F 100% 29.60 in 1.8 mi Calm Calm - N/A   Mist
2:35 AM 41.0 °F - 41.0 °F 100% 29.59 in 0.8 mi Calm Calm - N/A   Mist
2:55 AM 37.4 °F - 37.4 °F 100% 29.59 in 0.2 mi Calm Calm - N/A Fog Fog
3:15 AM 37.4 °F - 37.4 °F 100% 29.59 in 0.2 mi Calm Calm - N/A Fog Fog
3:35 AM 37.4 °F - 37.4 °F 100% 29.60 in 0.2 mi Calm Calm - N/A Fog Fog
3:55 AM 37.4 °F - 37.4 °F 100% 29.60 in 1.0 mi Calm Calm - N/A   Mist
4:15 AM 37.4 °F - 37.4 °F 100% 29.60 in 0.5 mi Calm Calm - N/A Fog Fog
4:35 AM 37.4 °F - 37.4 °F 100% 29.60 in 1.5 mi Calm Calm - N/A   Mist
4:55 AM 37.4 °F - 37.4 °F 100% 29.60 in 0.5 mi Calm Calm - N/A Fog Fog
5:15 AM 37.4 °F - 37.4 °F 100% 29.59 in 4.0 mi Calm Calm - N/A   Mist
5:35 AM 37.4 °F - 37.4 °F 100% 29.60 in 2.0 mi Calm Calm - N/A   Mist
5:55 AM 37.4 °F - 37.4 °F 100% 29.60 in 7.0 mi Calm Calm - N/A   Unknown
6:15 AM 37.4 °F - 37.4 °F 100% 29.61 in 5.0 mi Calm Calm - N/A   Mist
6:35 AM 37.4 °F - 37.4 °F 100% 29.61 in 5.0 mi Calm Calm - N/A   Mist
6:55 AM 37.4 °F 34.9 °F 37.4 °F 100% 29.62 in 7.0 mi South 3.5 mph - N/A   Unknown
7:15 AM 37.4 °F - 37.4 °F 100% 29.61 in 5.0 mi Calm Calm - N/A   Mist
7:35 AM 41.0 °F 38.0 °F 41.0 °F 100% 29.62 in 7.0 mi SSW 4.6 mph - N/A   Unknown
7:55 AM 50.0 °F - 50.0 °F 100% 29.62 in 7.0 mi SW 3.5 mph - N/A   Unknown
8:15 AM 53.6 °F - 53.6 °F 100% 29.63 in 10.0 mi SW 5.8 mph - N/A   Unknown
8:35 AM 53.6 °F - 53.6 °F 100% 29.66 in 10.0 mi SW 4.6 mph - N/A   Unknown
8:55 AM 55.4 °F - 55.4 °F 100% 29.66 in 10.0 mi WSW 3.5 mph - N/A   Unknown
9:15 AM 55.4 °F - 55.4 °F 100% 29.68 in 10.0 mi Calm Calm - N/A   Unknown
9:35 AM 59.0 °F - 55.4 °F 88% 29.68 in 10.0 mi SW 3.5 mph - N/A   Unknown
9:55 AM 60.8 °F - 55.4 °F 82% 29.69 in 10.0 mi SW 5.8 mph - N/A   Unknown
10:15 AM 62.6 °F - 55.4 °F 77% 29.70 in 10.0 mi SSW 6.9 mph - N/A   Unknown
10:35 AM 64.4 °F - 53.6 °F 68% 29.70 in 10.0 mi SW 6.9 mph - N/A   Unknown
10:55 AM 64.4 °F - 55.4 °F 73% 29.70 in 10.0 mi SW 8.1 mph - N/A   Unknown
11:15 AM 66.2 °F - 53.6 °F 64% 29.69 in 10.0 mi SW 15.0 mph 18.4 mph N/A   Unknown
11:35 AM 68.0 °F - 53.6 °F 60% 29.70 in 10.0 mi SW 9.2 mph - N/A   Unknown
11:55 AM 68.0 °F - 51.8 °F 56% 29.69 in 10.0 mi WSW 8.1 mph - N/A   Unknown
12:15 PM 71.6 °F - 51.8 °F 50% 29.68 in 10.0 mi West 9.2 mph - N/A   Unknown
12:35 PM 68.0 °F - 51.8 °F 56% 29.68 in 10.0 mi West 8.1 mph - N/A   Unknown
12:55 PM 68.0 °F - 51.8 °F 56% 29.68 in 10.0 mi WNW 4.6 mph - N/A   Unknown
1:15 PM 68.0 °F - 51.8 °F 56% 29.69 in 10.0 mi West 5.8 mph - N/A   Unknown
1:35 PM 66.2 °F - 50.0 °F 56% 29.69 in 10.0 mi WNW 4.6 mph - N/A   Unknown
1:55 PM 64.4 °F - 50.0 °F 59% 29.68 in 10.0 mi Calm Calm - N/A   Unknown
2:15 PM 64.4 °F - 50.0 °F 59% 29.70 in 10.0 mi ENE 5.8 mph - N/A   Unknown
2:35 PM 62.6 °F - 50.0 °F 63% 29.71 in 10.0 mi Calm Calm - N/A   Unknown
2:55 PM 60.8 °F - 50.0 °F 68% 29.71 in 10.0 mi Calm Calm - N/A   Unknown
3:15 PM 60.8 °F - 50.0 °F 68% 29.73 in 10.0 mi NE 4.6 mph - N/A   Unknown
3:35 PM 59.0 °F - 48.2 °F 67% 29.74 in 10.0 mi North 5.8 mph - N/A   Unknown
3:55 PM 59.0 °F - 48.2 °F 67% 29.75 in 7.0 mi NNE 5.8 mph - N/A   Unknown
4:15 PM 55.4 °F - 46.4 °F 72% 29.76 in 7.0 mi North 8.1 mph - N/A   Unknown
4:35 PM 55.4 °F - 46.4 °F 72% 29.76 in 7.0 mi Calm Calm - N/A   Unknown
4:55 PM 53.6 °F - 46.4 °F 77% 29.78 in 7.0 mi ESE 3.5 mph - N/A   Unknown
5:15 PM 51.8 °F - 44.6 °F 76% 29.80 in 7.0 mi East 4.6 mph - N/A   Unknown
5:35 PM 51.8 °F - 44.6 °F 76% 29.81 in 7.0 mi South 3.5 mph - N/A   Unknown
5:55 PM 48.2 °F - 44.6 °F 87% 29.82 in 7.0 mi SE 3.5 mph - N/A   Unknown
6:15 PM 46.4 °F 45.2 °F 44.6 °F 93% 29.83 in 7.0 mi ESE 3.5 mph - N/A   Unknown
6:35 PM 46.4 °F 44.3 °F 42.8 °F 87% 29.84 in 7.0 mi SSE 4.6 mph - N/A   Unknown
6:55 PM 44.6 °F 42.2 °F 42.8 °F 93% 29.85 in 7.0 mi SSE 4.6 mph - N/A   Unknown
7:15 PM 44.6 °F - 42.8 °F 93% 29.86 in 7.0 mi Calm Calm - N/A   Unknown
7:35 PM 44.6 °F - 42.8 °F 93% 29.87 in 7.0 mi Calm Calm - N/A   Unknown
7:55 PM 44.6 °F - 41.0 °F 87% 29.88 in 10.0 mi Calm Calm - N/A   Unknown
8:15 PM 42.8 °F - 41.0 °F 93% 29.88 in 7.0 mi Calm Calm - N/A   Unknown
8:35 PM 44.6 °F - 39.2 °F 81% 29.90 in 10.0 mi Calm Calm - N/A   Unknown
8:55 PM 44.6 °F 38.8 °F 39.2 °F 81% 29.90 in 10.0 mi North 11.5 mph - N/A   Unknown
9:15 PM 42.8 °F 38.6 °F 39.2 °F 87% 29.90 in 10.0 mi North 6.9 mph - N/A   Unknown
9:35 PM 42.8 °F 38.0 °F 39.2 °F 87% 29.91 in 10.0 mi NNW 8.1 mph - N/A   Unknown
9:55 PM 42.8 °F 38.6 °F 39.2 °F 87% 29.91 in 10.0 mi North 6.9 mph - N/A   Unknown
10:15 PM 42.8 °F 39.3 °F 37.4 °F 81% 29.92 in 10.0 mi NNW 5.8 mph - N/A   Unknown
10:35 PM 42.8 °F 40.1 °F 37.4 °F 81% 29.93 in 10.0 mi NNW 4.6 mph - N/A   Unknown
10:55 PM 42.8 °F 39.3 °F 37.4 °F 81% 29.94 in 10.0 mi North 5.8 mph - N/A   Unknown
11:15 PM 42.8 °F 37.5 °F 37.4 °F 81% 29.96 in 10.0 mi NNW 9.2 mph - N/A   Unknown
11:35 PM 42.8 °F 38.0 °F 37.4 °F 81% 29.95 in 10.0 mi North 8.1 mph - N/A   Unknown
11:55 PM 42.8 °F 38.0 °F 35.6 °F 76% 29.96 in 10.0 mi NNW 8.1 mph 18.4 mph N/A   Unknown